EJU46JC LPPR-LPPS

Flight info

Callsign EJU46JC
Flight time 1h 39m
Altitude 37000
Route ASMOV DCT DIRMA DCT TUNAV DCT VERAM DCT RAKUN
Aircraft A320/M-SDE3FGHIRWY/LB1

Departure

Time 2026-04-26 11:39
Airport Francisco de Sá Carneiro Airport (LPPR)

Arrival

Time 2026-04-26 13:19
Airport Porto Santo Airport (LPPS)
Time Latitude Longitude Altitude Speed Heading
2026-04-26 11:21 41.23792 -8.67364 237 ft 0 kts 49°
2026-04-26 11:30 41.23785 -8.67374 237 ft 2 kts 51°
2026-04-26 11:30 41.23772 -8.67397 237 ft 2 kts 53°
2026-04-26 11:30 41.23762 -8.67414 237 ft 2 kts 58°
2026-04-26 11:31 41.23754 -8.67434 237 ft 2 kts 76°
2026-04-26 11:31 41.23755 -8.67455 237 ft 2 kts 147°
2026-04-26 11:31 41.23763 -8.67461 237 ft 1 kts 162°
2026-04-26 11:31 41.23764 -8.67462 237 ft 0 kts 163°
2026-04-26 11:33 41.23763 -8.67461 237 ft 0 kts 163°
2026-04-26 11:33 41.23760 -8.67460 237 ft 4 kts 164°
2026-04-26 11:33 41.23697 -8.67444 237 ft 11 kts 173°
2026-04-26 11:33 41.23635 -8.67481 237 ft 10 kts 238°
2026-04-26 11:34 41.23614 -8.67584 235 ft 11 kts 258°
2026-04-26 11:34 41.23605 -8.67642 231 ft 0 kts 258°
2026-04-26 11:34 41.23605 -8.67643 231 ft 0 kts 258°
2026-04-26 11:34 41.23604 -8.67652 234 ft 2 kts 258°
2026-04-26 11:35 41.23602 -8.67664 232 ft 0 kts 259°
2026-04-26 11:37 41.23598 -8.67689 230 ft 5 kts 259°
2026-04-26 11:37 41.23591 -8.67738 230 ft 5 kts 258°
2026-04-26 11:38 41.23596 -8.67794 229 ft 7 kts 314°
2026-04-26 11:38 41.23634 -8.67817 229 ft 7 kts 346°
2026-04-26 11:38 41.23792 -8.67859 225 ft 55 kts 348°
2026-04-26 11:38 41.24399 -8.68022 217 ft 120 kts 348°
2026-04-26 11:39 41.25393 -8.68280 204 ft 167 kts 346°
2026-04-26 11:39 41.26569 -8.68556 720 ft 174 kts 349°
2026-04-26 11:39 41.27778 -8.68841 1394 ft 178 kts 349°
2026-04-26 11:39 41.29053 -8.69169 1746 ft 197 kts 349°
2026-04-26 11:40 41.30442 -8.69535 2046 ft 216 kts 349°
2026-04-26 11:40 41.32038 -8.69953 2302 ft 245 kts 349°
2026-04-26 11:40 41.33761 -8.70416 2818 ft 263 kts 349°
2026-04-26 11:40 41.35580 -8.70914 3626 ft 270 kts 349°
2026-04-26 11:41 41.37435 -8.71418 4599 ft 273 kts 349°
2026-04-26 11:42 41.39638 -8.86396 10446 ft 300 kts 232°
2026-04-26 11:43 41.38149 -8.88471 10726 ft 322 kts 219°
2026-04-26 11:43 41.36376 -8.90456 11011 ft 341 kts 219°
2026-04-26 11:43 41.34544 -8.92506 11596 ft 348 kts 219°
2026-04-26 11:43 41.32680 -8.94599 12282 ft 352 kts 220°
2026-04-26 11:44 41.30804 -8.96716 12974 ft 356 kts 220°
2026-04-26 11:44 41.28903 -8.98862 13648 ft 360 kts 220°
2026-04-26 11:44 41.26981 -9.01031 14263 ft 364 kts 220°
2026-04-26 11:44 41.25044 -9.03216 14883 ft 367 kts 220°
2026-04-26 11:45 41.23087 -9.05423 15497 ft 370 kts 220°
2026-04-26 11:45 41.21118 -9.07641 16107 ft 373 kts 220°
2026-04-26 11:45 41.19128 -9.09877 16707 ft 376 kts 220°
2026-04-26 11:45 41.17120 -9.12132 17302 ft 379 kts 220°
2026-04-26 11:46 41.15096 -9.14404 17883 ft 383 kts 220°
2026-04-26 11:46 41.13058 -9.16694 18461 ft 386 kts 220°
2026-04-26 11:46 41.11030 -9.18971 18966 ft 388 kts 221°
2026-04-26 11:46 41.08958 -9.21291 19486 ft 390 kts 220°
2026-04-26 11:47 41.06876 -9.23619 20004 ft 393 kts 221°
2026-04-26 11:47 41.04784 -9.25956 20519 ft 394 kts 221°
2026-04-26 11:47 41.02682 -9.28302 21028 ft 396 kts 221°
2026-04-26 11:47 41.00570 -9.30657 21540 ft 398 kts 221°
2026-04-26 11:48 40.98447 -9.33019 22040 ft 400 kts 221°
2026-04-26 11:48 40.96324 -9.35411 22533 ft 402 kts 222°
2026-04-26 11:48 40.94268 -9.37921 23009 ft 403 kts 225°
2026-04-26 11:48 40.92261 -9.40538 23471 ft 405 kts 226°
2026-04-26 11:49 40.90283 -9.43206 23901 ft 407 kts 226°
2026-04-26 11:49 40.88302 -9.45892 24279 ft 409 kts 226°
2026-04-26 11:49 40.86300 -9.48584 24660 ft 411 kts 226°
2026-04-26 11:49 40.84273 -9.51265 25026 ft 414 kts 225°
2026-04-26 11:50 40.82230 -9.53886 25385 ft 416 kts 224°
2026-04-26 11:50 40.80126 -9.56525 25739 ft 418 kts 224°
2026-04-26 11:50 40.78007 -9.59151 26100 ft 419 kts 224°
2026-04-26 11:50 40.75874 -9.61792 26461 ft 421 kts 224°
2026-04-26 11:51 40.73737 -9.64444 26821 ft 423 kts 224°
2026-04-26 11:51 40.71595 -9.67112 27175 ft 425 kts 224°
2026-04-26 11:51 40.69451 -9.69790 27512 ft 427 kts 224°
2026-04-26 11:51 40.67292 -9.72491 27850 ft 429 kts 224°
2026-04-26 11:52 40.65123 -9.75202 28180 ft 431 kts 224°
2026-04-26 11:52 40.63682 -9.77004 28395 ft 432 kts 224°
2026-04-26 11:52 40.60754 -9.80664 28818 ft 435 kts 224°
2026-04-26 11:52 40.58550 -9.83414 29121 ft 437 kts 224°
2026-04-26 11:53 40.56335 -9.86170 29416 ft 440 kts 224°
2026-04-26 11:53 40.54107 -9.88935 29705 ft 442 kts 223°
2026-04-26 11:53 40.51866 -9.91712 29986 ft 444 kts 223°
2026-04-26 11:54 40.47361 -9.97295 30501 ft 447 kts 223°
2026-04-26 11:54 40.45093 -10.00106 30728 ft 449 kts 223°
2026-04-26 11:54 40.42819 -10.02924 30960 ft 451 kts 223°
2026-04-26 11:54 40.40536 -10.05747 31258 ft 450 kts 223°
2026-04-26 11:55 40.38254 -10.08556 31614 ft 449 kts 223°
2026-04-26 11:55 40.35979 -10.11353 31963 ft 448 kts 223°
2026-04-26 11:55 40.33712 -10.14143 32299 ft 447 kts 223°
2026-04-26 11:55 40.31448 -10.16930 32624 ft 446 kts 223°
2026-04-26 11:56 40.29190 -10.19713 32954 ft 445 kts 223°
2026-04-26 11:56 40.26938 -10.22488 33280 ft 444 kts 223°
2026-04-26 11:56 40.24688 -10.25252 33607 ft 444 kts 223°
2026-04-26 11:56 40.22438 -10.28009 33937 ft 443 kts 223°
2026-04-26 11:57 40.20188 -10.30753 34245 ft 442 kts 223°
2026-04-26 11:57 40.17940 -10.33492 34521 ft 441 kts 223°
2026-04-26 11:57 40.15725 -10.36196 34810 ft 440 kts 223°
2026-04-26 11:57 40.13494 -10.38921 35113 ft 439 kts 223°
2026-04-26 11:58 40.11271 -10.41642 35399 ft 437 kts 223°
2026-04-26 11:58 40.09056 -10.44349 35681 ft 436 kts 223°
2026-04-26 11:58 40.06847 -10.47044 35944 ft 434 kts 223°
2026-04-26 11:58 40.04643 -10.49729 36218 ft 432 kts 224°
2026-04-26 11:59 40.02441 -10.52406 36479 ft 431 kts 224°
2026-04-26 11:59 40.00249 -10.55064 36736 ft 430 kts 224°
2026-04-26 11:59 39.98060 -10.57712 36985 ft 428 kts 224°
2026-04-26 11:59 39.95879 -10.60348 37151 ft 427 kts 224°
2026-04-26 12:00 39.94441 -10.62091 37177 ft 426 kts 224°
2026-04-26 12:00 39.90100 -10.67348 37178 ft 425 kts 224°
2026-04-26 12:01 39.85064 -10.73438 37178 ft 425 kts 224°
2026-04-26 12:01 39.80734 -10.78669 37181 ft 425 kts 224°
2026-04-26 12:02 39.77089 -10.83048 37181 ft 425 kts 224°
2026-04-26 12:02 39.72750 -10.88262 37186 ft 425 kts 224°
2026-04-26 12:03 39.68407 -10.93471 37188 ft 425 kts 224°
2026-04-26 12:03 39.64091 -10.98643 37189 ft 425 kts 223°
2026-04-26 12:04 39.59740 -11.03838 37190 ft 425 kts 224°
2026-04-26 12:04 39.55394 -11.09029 37193 ft 425 kts 223°
2026-04-26 12:05 39.51041 -11.14210 37193 ft 425 kts 224°
2026-04-26 12:05 39.46687 -11.19382 37188 ft 425 kts 224°
2026-04-26 12:06 39.42334 -11.24552 37188 ft 425 kts 224°
2026-04-26 12:06 39.37976 -11.29712 37183 ft 424 kts 223°
2026-04-26 12:07 39.33609 -11.34862 37192 ft 425 kts 223°
2026-04-26 12:07 39.29063 -11.39659 37192 ft 425 kts 217°
2026-04-26 12:08 39.24290 -11.44170 37189 ft 426 kts 218°
2026-04-26 12:08 39.19506 -11.48687 37195 ft 426 kts 217°
2026-04-26 12:09 39.14723 -11.53177 37197 ft 425 kts 217°
2026-04-26 12:09 39.09938 -11.57671 37198 ft 425 kts 217°
2026-04-26 12:10 39.05150 -11.62159 37197 ft 425 kts 217°
2026-04-26 12:10 39.00370 -11.66630 37193 ft 425 kts 217°
2026-04-26 12:11 38.95596 -11.71101 37198 ft 424 kts 217°
2026-04-26 12:11 38.90828 -11.75564 37195 ft 424 kts 217°
2026-04-26 12:12 38.86052 -11.80011 37194 ft 424 kts 217°
2026-04-26 12:12 38.81276 -11.84446 37192 ft 424 kts 217°
2026-04-26 12:13 38.76531 -11.88846 37190 ft 423 kts 217°
2026-04-26 12:13 38.71765 -11.93273 37189 ft 423 kts 217°
2026-04-26 12:14 38.66985 -11.97693 37188 ft 423 kts 217°
2026-04-26 12:14 38.62214 -12.02093 37187 ft 423 kts 217°
2026-04-26 12:15 38.57443 -12.06491 37190 ft 423 kts 217°
2026-04-26 12:15 38.52669 -12.10884 37191 ft 423 kts 217°
2026-04-26 12:16 38.47900 -12.15272 37192 ft 423 kts 216°
2026-04-26 12:16 38.43156 -12.19626 37196 ft 423 kts 216°
2026-04-26 12:17 38.38384 -12.24007 37196 ft 423 kts 216°
2026-04-26 12:17 38.33605 -12.28383 37196 ft 423 kts 216°
2026-04-26 12:18 38.28825 -12.32746 37202 ft 423 kts 216°
2026-04-26 12:18 38.24041 -12.37101 37202 ft 423 kts 216°
2026-04-26 12:19 38.19254 -12.41445 37201 ft 423 kts 216°
2026-04-26 12:19 38.14464 -12.45786 37201 ft 423 kts 216°
2026-04-26 12:20 38.09716 -12.50111 37201 ft 422 kts 216°
2026-04-26 12:20 38.04930 -12.54454 37198 ft 422 kts 216°
2026-04-26 12:21 38.00146 -12.58778 37201 ft 422 kts 216°
2026-04-26 12:21 37.95362 -12.63100 37202 ft 422 kts 216°
2026-04-26 12:22 37.90566 -12.67415 37209 ft 423 kts 216°
2026-04-26 12:22 37.85766 -12.71727 37201 ft 423 kts 215°
2026-04-26 12:23 37.80971 -12.76030 37202 ft 423 kts 215°
2026-04-26 12:23 37.76205 -12.80311 37200 ft 423 kts 215°
2026-04-26 12:24 37.71402 -12.84609 37201 ft 423 kts 215°
2026-04-26 12:24 37.66592 -12.88900 37200 ft 423 kts 215°
2026-04-26 12:25 37.59380 -12.95340 37200 ft 423 kts 215°
2026-04-26 12:25 37.54569 -12.99626 37208 ft 424 kts 215°
2026-04-26 12:26 37.49749 -13.03911 37204 ft 424 kts 215°
2026-04-26 12:26 37.44923 -13.08194 37205 ft 424 kts 215°
2026-04-26 12:27 37.40132 -13.12444 37210 ft 424 kts 215°
2026-04-26 12:27 37.35297 -13.16721 37207 ft 425 kts 214°
2026-04-26 12:28 37.30462 -13.20985 37207 ft 425 kts 214°
2026-04-26 12:28 37.25623 -13.25248 37200 ft 425 kts 214°
2026-04-26 12:29 37.20783 -13.29509 37200 ft 425 kts 214°
2026-04-26 12:30 37.13519 -13.35895 37198 ft 426 kts 214°
2026-04-26 12:30 37.08667 -13.40156 37194 ft 426 kts 214°
2026-04-26 12:31 37.01367 -13.46528 37194 ft 426 kts 214°
2026-04-26 12:31 36.96535 -13.50755 37196 ft 427 kts 214°
2026-04-26 12:32 36.91664 -13.55002 37192 ft 427 kts 214°
2026-04-26 12:33 36.84343 -13.61362 37194 ft 428 kts 214°
2026-04-26 12:33 36.79458 -13.65604 37195 ft 428 kts 214°
2026-04-26 12:34 36.74396 -13.69497 37190 ft 428 kts 208°
2026-04-26 12:34 36.69170 -13.73070 37190 ft 428 kts 208°
2026-04-26 12:35 36.63976 -13.76609 37191 ft 428 kts 208°
2026-04-26 12:35 36.58748 -13.80179 37192 ft 429 kts 208°
2026-04-26 12:36 36.53517 -13.83745 37197 ft 429 kts 208°
2026-04-26 12:36 36.48274 -13.87301 37194 ft 429 kts 208°
2026-04-26 12:37 36.43036 -13.90855 37189 ft 429 kts 208°
2026-04-26 12:37 36.37798 -13.94411 37189 ft 429 kts 208°
2026-04-26 12:38 36.32562 -13.97969 37186 ft 429 kts 208°
2026-04-26 12:38 36.27326 -14.01511 37187 ft 429 kts 208°
2026-04-26 12:39 36.22081 -14.05048 37182 ft 429 kts 208°
2026-04-26 12:39 36.16838 -14.08581 37183 ft 429 kts 208°
2026-04-26 12:40 36.11615 -14.12092 37183 ft 430 kts 208°
2026-04-26 12:40 36.06351 -14.15626 37188 ft 430 kts 208°
2026-04-26 12:41 36.01093 -14.19159 37187 ft 431 kts 208°
2026-04-26 12:41 35.95815 -14.22706 37183 ft 431 kts 208°
2026-04-26 12:42 35.90539 -14.26227 37180 ft 431 kts 208°
2026-04-26 12:42 35.85297 -14.29733 37182 ft 431 kts 208°
2026-04-26 12:43 35.80009 -14.33255 37184 ft 432 kts 208°
2026-04-26 12:43 35.74721 -14.36770 37177 ft 432 kts 208°
2026-04-26 12:44 35.69433 -14.40281 37171 ft 432 kts 208°
2026-04-26 12:44 35.64145 -14.43787 37177 ft 432 kts 208°
2026-04-26 12:45 35.58845 -14.47309 37178 ft 433 kts 208°
2026-04-26 12:45 35.53582 -14.50801 37177 ft 433 kts 208°
2026-04-26 12:46 35.48274 -14.54317 37180 ft 434 kts 208°
2026-04-26 12:46 35.42958 -14.57818 37180 ft 434 kts 208°
2026-04-26 12:47 35.37641 -14.61317 37181 ft 434 kts 208°
2026-04-26 12:47 35.32310 -14.64826 37181 ft 434 kts 208°
2026-04-26 12:48 35.27027 -14.68324 37181 ft 434 kts 208°
2026-04-26 12:48 35.21694 -14.71808 37178 ft 435 kts 207°
2026-04-26 12:49 35.16351 -14.75290 37175 ft 435 kts 208°
2026-04-26 12:49 35.11016 -14.78788 37180 ft 435 kts 208°
2026-04-26 12:50 35.05674 -14.82274 37179 ft 435 kts 208°
2026-04-26 12:50 35.00329 -14.85756 37180 ft 435 kts 207°
2026-04-26 12:51 34.95012 -14.89208 37179 ft 436 kts 207°
2026-04-26 12:51 34.89658 -14.92679 37179 ft 436 kts 207°
2026-04-26 12:52 34.84307 -14.96153 37180 ft 436 kts 207°
2026-04-26 12:52 34.78957 -14.99630 37182 ft 436 kts 207°
2026-04-26 12:53 34.73600 -15.03091 37183 ft 436 kts 207°
2026-04-26 12:53 34.68248 -15.06554 37185 ft 436 kts 207°
2026-04-26 12:54 34.62892 -15.10020 37184 ft 436 kts 207°
2026-04-26 12:54 34.57535 -15.13470 37187 ft 436 kts 207°
2026-04-26 12:55 34.52205 -15.16895 37186 ft 436 kts 207°
2026-04-26 12:55 34.46851 -15.20338 37183 ft 436 kts 207°
2026-04-26 12:56 34.41495 -15.23775 37183 ft 435 kts 207°
2026-04-26 12:56 34.37040 -15.26621 37017 ft 435 kts 207°
2026-04-26 12:56 34.34368 -15.28327 36768 ft 434 kts 207°
2026-04-26 12:57 34.31694 -15.30033 36462 ft 433 kts 207°
2026-04-26 12:57 34.29028 -15.31740 35722 ft 436 kts 207°
2026-04-26 12:57 34.26337 -15.33465 34940 ft 439 kts 207°
2026-04-26 12:58 34.20920 -15.36926 33624 ft 437 kts 207°
2026-04-26 12:58 34.18244 -15.38628 33055 ft 432 kts 207°
2026-04-26 12:58 34.15596 -15.40309 32508 ft 428 kts 207°
2026-04-26 12:58 34.12969 -15.41975 31960 ft 424 kts 207°
2026-04-26 12:59 34.10371 -15.43627 31435 ft 421 kts 207°
2026-04-26 12:59 34.07793 -15.45270 30897 ft 418 kts 207°
2026-04-26 12:59 34.05233 -15.46906 30382 ft 415 kts 207°
2026-04-26 12:59 34.02687 -15.48528 29808 ft 412 kts 207°
2026-04-26 13:00 34.00169 -15.50128 29306 ft 407 kts 207°
2026-04-26 13:00 33.97673 -15.51711 28800 ft 403 kts 207°
2026-04-26 13:00 33.95203 -15.53275 28304 ft 399 kts 207°
2026-04-26 13:00 33.92760 -15.54818 27826 ft 394 kts 207°
2026-04-26 13:01 33.90339 -15.56344 27352 ft 390 kts 207°
2026-04-26 13:01 33.87941 -15.57855 26895 ft 386 kts 208°
2026-04-26 13:01 33.85600 -15.59329 26450 ft 383 kts 208°
2026-04-26 13:01 33.83253 -15.60809 26009 ft 379 kts 208°
2026-04-26 13:02 33.80929 -15.62277 25572 ft 376 kts 208°
2026-04-26 13:02 33.78624 -15.63732 25137 ft 373 kts 208°
2026-04-26 13:02 33.76331 -15.65175 24705 ft 371 kts 208°
2026-04-26 13:02 33.74052 -15.66604 24268 ft 369 kts 208°
2026-04-26 13:03 33.71783 -15.68029 23822 ft 367 kts 208°
2026-04-26 13:03 33.69526 -15.69450 23331 ft 365 kts 208°
2026-04-26 13:03 33.67281 -15.70863 22878 ft 363 kts 208°
2026-04-26 13:03 33.65052 -15.72263 22437 ft 360 kts 208°
2026-04-26 13:04 33.62839 -15.73653 21991 ft 358 kts 207°
2026-04-26 13:04 33.60636 -15.75040 21539 ft 357 kts 207°
2026-04-26 13:04 33.58444 -15.76419 21101 ft 355 kts 207°
2026-04-26 13:04 33.56255 -15.77792 20644 ft 354 kts 207°
2026-04-26 13:05 33.54101 -15.79224 20197 ft 354 kts 210°
2026-04-26 13:05 33.52029 -15.80745 19764 ft 353 kts 212°
2026-04-26 13:05 33.49961 -15.82342 19316 ft 353 kts 212°
2026-04-26 13:05 33.47907 -15.83955 18874 ft 353 kts 212°
2026-04-26 13:06 33.45849 -15.85565 18439 ft 353 kts 212°
2026-04-26 13:06 33.43785 -15.87163 17947 ft 353 kts 212°
2026-04-26 13:06 33.41725 -15.88742 17509 ft 351 kts 211°
2026-04-26 13:06 33.39670 -15.90307 17079 ft 350 kts 211°
2026-04-26 13:07 33.37617 -15.91861 16653 ft 349 kts 211°
2026-04-26 13:07 33.35567 -15.93407 16226 ft 348 kts 211°
2026-04-26 13:07 33.33518 -15.94946 15798 ft 347 kts 211°
2026-04-26 13:07 33.31478 -15.96479 15384 ft 347 kts 211°
2026-04-26 13:08 33.29431 -15.98017 14957 ft 347 kts 211°
2026-04-26 13:08 33.27393 -15.99554 14544 ft 347 kts 211°
2026-04-26 13:08 33.25351 -16.01095 14108 ft 347 kts 211°
2026-04-26 13:08 33.23313 -16.02633 13652 ft 347 kts 211°
2026-04-26 13:09 33.21272 -16.04169 13216 ft 346 kts 210°
2026-04-26 13:09 33.19241 -16.05698 12784 ft 344 kts 211°
2026-04-26 13:09 33.17217 -16.07218 12350 ft 343 kts 210°
2026-04-26 13:09 33.15195 -16.08734 11917 ft 342 kts 210°
2026-04-26 13:10 33.13185 -16.10244 11484 ft 341 kts 210°
2026-04-26 13:10 33.11203 -16.11733 11051 ft 340 kts 211°
2026-04-26 13:10 33.09204 -16.13235 10607 ft 340 kts 210°
2026-04-26 13:10 33.07209 -16.14732 10290 ft 335 kts 210°
2026-04-26 13:11 33.05232 -16.16094 10166 ft 321 kts 201°
2026-04-26 13:11 33.03142 -16.16824 10029 ft 306 kts 186°
2026-04-26 13:11 33.01060 -16.16932 9455 ft 297 kts 175°
2026-04-26 13:11 32.99003 -16.16852 8894 ft 293 kts 174°
2026-04-26 13:12 32.96976 -16.16769 8440 ft 290 kts 174°
2026-04-26 13:12 32.94950 -16.16684 7991 ft 292 kts 174°
2026-04-26 13:12 32.92924 -16.16601 7606 ft 290 kts 174°
2026-04-26 13:12 32.90904 -16.16711 7114 ft 296 kts 191°
2026-04-26 13:13 32.89120 -16.17817 6647 ft 294 kts 221°
2026-04-26 13:13 32.87976 -16.19805 6162 ft 286 kts 251°
2026-04-26 13:13 32.87735 -16.22057 5718 ft 275 kts 279°
2026-04-26 13:13 32.88270 -16.24177 5241 ft 264 kts 295°
2026-04-26 13:14 32.88960 -16.26188 4729 ft 259 kts 296°
2026-04-26 13:14 32.89633 -16.28141 4303 ft 252 kts 296°
2026-04-26 13:14 32.90288 -16.30046 3915 ft 243 kts 296°
2026-04-26 13:14 32.90920 -16.31885 3535 ft 237 kts 296°
2026-04-26 13:15 32.91700 -16.33552 3155 ft 225 kts 320°
2026-04-26 13:15 32.93009 -16.34385 2835 ft 209 kts 353°
2026-04-26 13:15 32.94388 -16.34482 2569 ft 192 kts
2026-04-26 13:15 32.95696 -16.34535 2341 ft 181 kts 360°
2026-04-26 13:16 32.96890 -16.34583 2097 ft 162 kts
2026-04-26 13:16 32.97961 -16.34627 1888 ft 145 kts
2026-04-26 13:16 32.98918 -16.34661 1691 ft 132 kts
2026-04-26 13:16 32.99827 -16.34695 1513 ft 132 kts
2026-04-26 13:17 33.01689 -16.34781 1162 ft 136 kts
2026-04-26 13:17 33.02634 -16.34818 967 ft 135 kts
2026-04-26 13:18 33.04483 -16.34891 605 ft 132 kts 360°
2026-04-26 13:18 33.05379 -16.34920 416 ft 126 kts
2026-04-26 13:18 33.07055 -16.34981 250 ft 93 kts 359°
2026-04-26 13:19 33.07529 -16.34998 245 ft 43 kts 358°
2026-04-26 13:19 33.07772 -16.35007 245 ft 32 kts 358°
2026-04-26 13:19 33.07954 -16.35014 242 ft 28 kts 358°
2026-04-26 13:19 33.08088 -16.34939 247 ft 20 kts 42°
2026-04-26 13:20 33.08184 -16.34958 248 ft 17 kts 282°
2026-04-26 13:20 33.08103 -16.35021 247 ft 18 kts 178°
2026-04-26 13:20 33.07921 -16.35015 242 ft 33 kts 178°
2026-04-26 13:20 33.07670 -16.35002 246 ft 39 kts 178°
2026-04-26 13:21 33.07379 -16.34991 250 ft 42 kts 178°
2026-04-26 13:21 33.07205 -16.34985 252 ft 35 kts 179°
2026-04-26 13:21 33.06976 -16.34965 251 ft 15 kts 143°
2026-04-26 13:21 33.06963 -16.34847 249 ft 16 kts 88°
2026-04-26 13:22 33.06970 -16.34717 249 ft 12 kts 86°
2026-04-26 13:22 33.06973 -16.34630 249 ft 6 kts 77°
2026-04-26 13:22 33.06987 -16.34622 249 ft 2 kts
2026-04-26 13:22 33.06996 -16.34631 249 ft 0 kts 309°